Location: Allie Creek
(37.5926°N, 89.8526°W)
Time: 02:42:51
(UTC+00:00)

BlueWalker 3 - Visible Passes

Search period start: 19 January 2026 00:00
Search period end: 29 January 2026 00:00
Orbit: 451 x 463 km, 53.2° (Epoch: 18 January)

Date Brightness Start Highest point End Pass type
(mag) Time Alt. Az. Time Alt. Az. Time Alt. Az.
19 Jan 3.5 01:19:41 10° SW 01:21:39 30° SW 01:21:39 30° SW visible
20 Jan 1.5 00:44:22 10° SW 00:47:54 75° SE 00:48:12 69° E visible
21 Jan 1.9 00:09:06 10° SSW 00:12:33 53° SE 00:14:39 21° ENE visible
21 Jan 4.8 01:47:35 10° WNW 01:48:25 14° WNW 01:48:25 14° WNW visible
21 Jan 2.5 23:33:54 10° SSW 23:37:14 38° SE 23:40:33 10° ENE visible
22 Jan 3.6 01:11:50 10° W 01:14:47 24° NNW 01:14:47 24° NNW visible
23 Jan 3.3 00:36:09 10° W 00:39:19 30° NW 00:41:03 20° NNE visible
24 Jan 2.9 00:00:30 10° WSW 00:03:51 38° NW 00:07:13 10° NNE visible
25 Jan 4.4 01:05:25 10° NW 01:06:35 11° NNW 01:07:08 11° NNW visible
26 Jan 4.3 00:29:14 10° NW 00:31:00 13° NNW 00:32:44 10° N visible
26 Jan 4.1 23:53:12 10° WNW 23:55:24 15° NNW 23:57:36 10° NNE visible
